Regional Weather Roundup
Issued by NWS

Home | Current Version | Previous Version | Graphics & Text | Print | Product List | Glossary On
Versions: 1 2 3 4 5 6 7 8 9 10 11 12 13 14 15 16 17 18 19 20 21 22 23 24 25 26 27 28 29 30 31 32 33 34 35 36 37 38 39 40 41 42 43 44 45 46 47 48 49 50
000
ASUS43 KLSX 281759
RWRMO

WEATHER SUMMARY FOR MISSOURI
NATIONAL WEATHER SERVICE SPRINGFIELD MO
100 PM CDT FRI APR 28 2017

NOTE: "FAIR" INDICATES FEW OR NO CLOUDS BELOW 12,000 FEET WITH NO
       SIGNIFICANT WEATHER AND/OR OBSTRUCTIONS TO VISIBILITY.
       CURRENT SKY AND/OR WEATHER CONDITIONS ARE NOT AVAILABLE FOR
       CHILLICOTHE AND FARMINGTON.

MOZ001>031-035>038-043-044-053-054-281900-
...NORTHERN AND WESTERN MISSOURI...

CITY           SKY/WX    TMP DP  RH WIND       PRES   REMARKS
KANSAS CTY INT CLOUDY    58  54  86 S6        29.68S
6HR MIN TEMP:  50; 6HR MAX TEMP:  58; 6HR PCP:  0.04;

KANSAS C DTWN  CLOUDY    61  56  83 CALM      29.67F
6HR MIN TEMP:  53; 6HR MAX TEMP:  61; 6HR PCP:  0.04;

LEE`S SUMMIT   LGT RAIN  61  57  87 S12       29.68S
6HR MIN TEMP:  51; 6HR MAX TEMP:  62; 6HR PCP:  0.04;

ST JOSEPH      LGT RAIN  48  48 100 NE9       29.71F
6HR MIN TEMP:  47; 6HR MAX TEMP:  50; 6HR PCP:  0.41;

CHILLICOTHE      N/A     53  51  93 N6        29.73R
6HR MIN TEMP:  50; 6HR MAX TEMP:  53; 6HR PCP:  0.19;

KIRKSVILLE     CLOUDY    48  50 100 NE14      29.74F HAZE
6HR MIN TEMP:  44; 6HR MAX TEMP:  48; 6HR PCP:  0.13;


$$
MOZ066>068-077>081-088>096-101>105-281900-
...SOUTHWEST MISSOURI...

CITY           SKY/WX    TMP DP  RH WIND       PRES   REMARKS
SPRINGFIELD    CLOUDY    61  58  90 S14       29.69S
6HR MIN TEMP:  55; 6HR MAX TEMP:  61; 6HR PCP:  0.15;

JOPLIN         CLOUDY    65  61  87 S5        29.68R
6HR MIN TEMP:  58; 6HR MAX TEMP:  65; 6HR PCP:  0.03;

BRANSON        CLOUDY    59  59 100 SE7       29.72S FOG

$$
MOZ032>034-039>042-045>050-055>058-069>072-281900-
...CENTRAL MISSOURI...

CITY           SKY/WX    TMP DP  RH WIND       PRES   REMARKS
COLUMBIA       CLOUDY    56  56 100 SE9       29.71F
6HR MIN TEMP:  53; 6HR MAX TEMP:  56; 6HR PCP:  0.36;

JEFFERSON CITY CLOUDY    61  55  81 E8        29.73F
6HR MIN TEMP:  56; 6HR MAX TEMP:  61; 6HR PCP:  0.19;

ROLLA          LGT RAIN  56  55  97 VRB5      29.72S
6HR MIN TEMP:  53; 6HR MAX TEMP:  56; 6HR PCP:  0.26;

SEDALIA        CLOUDY    60  58  92 S16       29.70R
6HR MIN TEMP:  53; 6HR MAX TEMP:  62; 6HR PCP:  0.28;

OSAGE BEACH    CLOUDY    57  56  96 NE6       29.73F

$$
MOZ051-052-059>065-281900-
...EAST CENTRAL MISSOURI...

CITY           SKY/WX    TMP DP  RH WIND       PRES   REMARKS
ST LOUIS INTL  TSTM      56  53  90 E12       29.77F
6HR MIN TEMP:  55; 6HR MAX TEMP:  58; 6HR PCP:  0.21;

SPIRIT OF STL  TSTM      56  55  97 VRB3      29.76F FOG
6HR MIN TEMP:  54; 6HR MAX TEMP:  57; 6HR PCP:  0.20;

ST CHARLES     TSTM      56  55  97 E14       29.78F
6HR MIN TEMP:  54; 6HR MAX TEMP:  59; 6HR PCP:  0.16;


$$
MOZ072>076-082>087-097>100-106>115-281900-
...SOUTH CENTRAL AND SOUTHEAST MISSOURI...

CITY           SKY/WX    TMP DP  RH WIND       PRES   REMARKS
CAPE GIRARDEAU LGT RAIN  66  58  75 E9        29.75F
6HR MIN TEMP:  55; 6HR MAX TEMP:  69; 6HR PCP:  0.01;

FARMINGTON     CLOUDY    67  58  72 SE13G18   29.74F
6HR MIN TEMP:  55; 6HR MAX TEMP:  67;

POPLAR BLUFF   RAIN      65  63  93 SE6       29.76F FOG
6HR MIN TEMP:  56; 6HR MAX TEMP:  68; 6HR PCP:  0.04;

WEST PLAINS    CLOUDY    62  57  83 S9        29.75R
6HR MIN TEMP:  55; 6HR MAX TEMP:  62;


$$



USA.gov is the U.S. government's official web portal to all federal, state and local government web resources and services.